• In Denmark
  • List of Countries
  • For 7 days
  • Water Temperature
  • Satellite Maps
  • Weather Map
  • Weather Widgets
  • user-avatar
    Login

    Hourly Weather Serowe

    Today, 24 September, Monday

    Time Temperature Precipitation Wind Pressure Humidity
    00:00 +22°C° 0 mm 3 mps 668 mmHg 38%
    01:00 +22°C° 0 mm 3 mps 668 mmHg 41%
    02:00 +21°C° 0 mm 3 mps 668 mmHg 43%
    03:00 +20°C° 0 mm 3 mps 668 mmHg 44%
    04:00 +20°C° 0 mm 3 mps 668 mmHg 45%
    05:00 +19°C° 0 mm 3 mps 667 mmHg 46%
    06:00 +21°C° 0 mm 4 mps 668 mmHg 42%
    07:00 +22°C° 0 mm 4 mps 668 mmHg 37%
    08:00 +23°C° 0 mm 5 mps 669 mmHg 32%
    09:00 +27°C° 0 mm 5 mps 669 mmHg 27%
    10:00 +29°C° 0 mm 5 mps 670 mmHg 23%
    11:00 +32°C° 0 mm 5 mps 670 mmHg 18%
    12:00 +33°C° 0 mm 5 mps 670 mmHg 15%
    13:00 +35°C° 0 mm 5 mps 669 mmHg 13%
    14:00 +36°C° 0 mm 5 mps 669 mmHg 11%
    15:00 +35°C° 0 mm 5 mps 668 mmHg 12%
    16:00 +35°C° 0 mm 6 mps 668 mmHg 12%
    17:00 +34°C° 0 mm 6 mps 667 mmHg 13%
    18:00 +32°C° 0 mm 5 mps 667 mmHg 15%
    19:00 +30°C° 0 mm 5 mps 667 mmHg 17%
    20:00 +28°C° 0 mm 4 mps 667 mmHg 19%
    21:00 +27°C° 0 mm 5 mps 668 mmHg 19%
    22:00 +27°C° 0 mm 5 mps 668 mmHg 20%
    23:00 +26°C° 0 mm 5 mps 668 mmHg 20%

    Tomorrow, 25 September, Tuesday

    Time Temperature Precipitation Wind Pressure Humidity
    00:00 +25°C° 0 mm 5 mps 668 mmHg 22%
    01:00 +23°C° 0 mm 5 mps 668 mmHg 23%
    02:00 +23°C° 0 mm 5 mps 667 mmHg 24%
    03:00 +22°C° 0 mm 5 mps 667 mmHg 27%
    04:00 +21°C° 0 mm 4 mps 667 mmHg 29%
    05:00 +21°C° 0 mm 4 mps 666 mmHg 32%
    06:00 +22°C° 0 mm 5 mps 667 mmHg 30%
    07:00 +23°C° 0 mm 6 mps 667 mmHg 28%
    08:00 +24°C° 0 mm 6 mps 668 mmHg 27%
    09:00 +28°C° 0 mm 6 mps 668 mmHg 23%
    10:00 +30°C° 0 mm 5 mps 668 mmHg 19%
    11:00 +34°C° 0 mm 5 mps 669 mmHg 16%
    12:00 +34°C° 0 mm 4 mps 668 mmHg 14%
    13:00 +35°C° 0 mm 4 mps 667 mmHg 12%
    14:00 +36°C° 0 mm 3 mps 667 mmHg 10%
    15:00 +36°C° 0 mm 3 mps 667 mmHg 10%
    16:00 +36°C° 0 mm 2 mps 666 mmHg 10%
    17:00 +36°C° 0 mm 2 mps 666 mmHg 10%
    18:00 +34°C° 0 mm 2 mps 666 mmHg 11%
    19:00 +31°C° 0 mm 2 mps 666 mmHg 12%
    20:00 +30°C° 0 mm 2 mps 666 mmHg 14%
    21:00 +29°C° 0 mm 2 mps 667 mmHg 15%
    22:00 +28°C° 0 mm 2 mps 667 mmHg 17%
    23:00 +27°C° 0 mm 3 mps 667 mmHg 18%

    Day after tomorrow, 26 September, Wednesday

    Time Temperature Precipitation Wind Pressure Humidity
    00:00 +27°C° 0 mm 3 mps 666 mmHg 21%
    01:00 +26°C° 0 mm 3 mps 666 mmHg 24%
    02:00 +25°C° 0 mm 4 mps 665 mmHg 27%
    03:00 +25°C° 0 mm 3 mps 665 mmHg 28%
    04:00 +24°C° 0 mm 3 mps 665 mmHg 28%
    05:00 +22°C° 0 mm 3 mps 665 mmHg 29%
    06:00 +25°C° 0 mm 4 mps 666 mmHg 27%
    07:00 +27°C° 0 mm 5 mps 667 mmHg 25%
    08:00 +28°C° 0 mm 6 mps 667 mmHg 23%
    09:00 +32°C° 0 mm 5 mps 668 mmHg 20%
    10:00 +34°C° 0 mm 5 mps 668 mmHg 16%
    11:00 +37°C° 0 mm 4 mps 669 mmHg 12%
    12:00 +37°C° 0 mm 4 mps 668 mmHg 10%
    13:00 +38°C° 0 mm 3 mps 668 mmHg 9%
    14:00 +39°C° 0 mm 3 mps 667 mmHg 7%
    15:00 +38°C° 0 mm 3 mps 667 mmHg 7%
    16:00 +38°C° 0 mm 3 mps 666 mmHg 7%
    17:00 +38°C° 0 mm 3 mps 666 mmHg 7%
    18:00 +36°C° 0 mm 3 mps 666 mmHg 8%
    19:00 +35°C° 0 mm 3 mps 667 mmHg 9%
    20:00 +33°C° 0 mm 3 mps 667 mmHg 10%
    21:00 +31°C° 0 mm 3 mps 667 mmHg 11%
    22:00 +30°C° 0 mm 3 mps 667 mmHg 12%
    23:00 +29°C° 0 mm 3 mps 667 mmHg 13%

    27 September, Thursday

    Time Temperature Precipitation Wind Pressure Humidity
    00:00 +28°C° 0 mm 3 mps 667 mmHg 15%
    01:00 +28°C° 0 mm 3 mps 666 mmHg 16%
    02:00 +27°C° 0 mm 3 mps 666 mmHg 18%
    03:00 +27°C° 0 mm 3 mps 666 mmHg 19%
    04:00 +26°C° 0 mm 3 mps 666 mmHg 21%
    05:00 +26°C° 0 mm 4 mps 666 mmHg 23%
    06:00 +27°C° 0 mm 4 mps 667 mmHg 23%
    07:00 +28°C° 0 mm 5 mps 667 mmHg 23%
    08:00 +29°C° 0 mm 6 mps 668 mmHg 22%
    09:00 +33°C° 0 mm 6 mps 668 mmHg 19%
    10:00 +35°C° 0 mm 6 mps 669 mmHg 17%
    11:00 +38°C° 0 mm 7 mps 669 mmHg 14%
    12:00 +39°C° 0 mm 6 mps 668 mmHg 13%
    13:00 +39°C° 0 mm 5 mps 668 mmHg 11%
    14:00 +40°C° 0 mm 4 mps 667 mmHg 10%
    15:00 +38°C° 0 mm 4 mps 667 mmHg 10%
    16:00 +38°C° 0 mm 4 mps 667 mmHg 11%
    17:00 +37°C° 0 mm 4 mps 666 mmHg 11%
    18:00 +36°C° 0 mm 4 mps 667 mmHg 13%
    19:00 +34°C° 0 mm 3 mps 667 mmHg 16%
    20:00 +31°C° 0 mm 3 mps 667 mmHg 18%
    21:00 +31°C° 0 mm 3 mps 667 mmHg 20%
    22:00 +30°C° 0 mm 2 mps 667 mmHg 22%
    23:00 +29°C° 0 mm 2 mps 668 mmHg 24%

    28 September, Friday

    Time Temperature Precipitation Wind Pressure Humidity
    00:00 +29°C° 0 mm 2 mps 667 mmHg 25%
    01:00 +28°C° 0 mm 2 mps 667 mmHg 26%
    02:00 +28°C° 0 mm 2 mps 666 mmHg 27%
    03:00 +27°C° 0 mm 3 mps 666 mmHg 29%
    04:00 +26°C° 0 mm 3 mps 666 mmHg 32%
    05:00 +25°C° 0 mm 4 mps 666 mmHg 34%
    06:00 +27°C° 0 mm 4 mps 667 mmHg 31%
    07:00 +28°C° 0 mm 5 mps 667 mmHg 29%
    08:00 +29°C° 0 mm 6 mps 668 mmHg 26%
    09:00 +32°C° 0 mm 6 mps 668 mmHg 22%
    10:00 +35°C° 0 mm 6 mps 668 mmHg 18%
    11:00 +37°C° 0 mm 5 mps 669 mmHg 14%
    12:00 +39°C° 0 mm 5 mps 668 mmHg 13%
    13:00 +38°C° 0 mm 4 mps 667 mmHg 12%
    14:00 +39°C° 0 mm 3 mps 667 mmHg 11%
    15:00 +39°C° 0 mm 3 mps 667 mmHg 10%
    16:00 +38°C° 0 mm 3 mps 666 mmHg 10%
    17:00 +38°C° 0 mm 3 mps 666 mmHg 10%
    18:00 +37°C° 0 mm 3 mps 666 mmHg 11%
    19:00 +35°C° 0 mm 4 mps 667 mmHg 13%
    20:00 +34°C° 0 mm 4 mps 667 mmHg 14%
    21:00 +33°C° 0 mm 4 mps 667 mmHg 15%
    22:00 +32°C° 0 mm 4 mps 667 mmHg 16%
    23:00 +30°C° 0 mm 5 mps 667 mmHg 18%

    29 September, Saturday

    Time Temperature Precipitation Wind Pressure Humidity
    00:00 +29°C° 0 mm 4 mps 667 mmHg 18%
    01:00 +28°C° 0 mm 3 mps 666 mmHg 19%
    02:00 +27°C° 0 mm 3 mps 666 mmHg 20%
    03:00 +27°C° 0 mm 3 mps 666 mmHg 20%
    04:00 +27°C° 0 mm 3 mps 667 mmHg 21%
    05:00 +26°C° 0 mm 3 mps 667 mmHg 21%
    06:00 +26°C° 0 mm 5 mps 668 mmHg 24%
    07:00 +27°C° 0 mm 6 mps 669 mmHg 27%
    08:00 +27°C° 0 mm 8 mps 670 mmHg 30%
    09:00 +28°C° 0 mm 8 mps 670 mmHg 30%
    10:00 +31°C° 0 mm 8 mps 670 mmHg 30%
    11:00 +32°C° 0 mm 9 mps 671 mmHg 30%
    12:00 +32°C° 0 mm 9 mps 670 mmHg 28%
    13:00 +33°C° 0 mm 9 mps 670 mmHg 27%
    14:00 +34°C° 0 mm 9 mps 670 mmHg 25%
    15:00 +33°C° 0 mm 9 mps 670 mmHg 26%
    16:00 +32°C° 0 mm 9 mps 670 mmHg 28%
    17:00 +31°C° 0 mm 9 mps 670 mmHg 29%
    18:00 +28°C° 0 mm 9 mps 670 mmHg 35%
    19:00 +26°C° 0 mm 9 mps 670 mmHg 41%
    20:00 +23°C° 0 mm 9 mps 671 mmHg 47%
    21:00 +22°C° 0 mm 9 mps 671 mmHg 52%
    22:00 +21°C° 0 mm 9 mps 671 mmHg 58%
    23:00 +18°C° 0 mm 9 mps 671 mmHg 63%
    Show more